(392374) = 2010 HS64

Discovered at WISE on 2010-04-26 by WISE.

Orbit

Orbit type: Main Belt

Note: WebGL enabled browser required.

epoch2024-03-31.0
epoch JD2460400.5
perihelion date2021-10-04.31371
perihelion JD2459491.81371
argument of perihelion (°)197.39323
ascending node (°)129.94764
inclination (°)22.25426
eccentricity0.1974621
perihelion distance (AU)2.4956443
Tisserand w.r.t. Jupiter3.1
ΔV w.r.t. Earth (km/sec)12.0
semimajor axis (AU)3.1096901
mean anomaly (°)163.32104
mean daily motion (°/day)0.17973310
aphelion distance (AU)3.724
period (years)5.48
P-vector [x]0.82482577
P-vector [y]-0.46319513
P-vector [z]-0.32421091
Q-vector [x]0.48514641
Q-vector [y]0.87430689
Q-vector [z]-0.01484663
absolute magnitude15.48
phase slope0.15
uncertainty0
referenceMPEC 2024-E179
observations used376
oppositions12
arc length (days)6744
first opposition used2005
last opposition used2024
residual rms (arc-secs)0.63
perturbers coarse indicatorM-v
perturbers precise indicator003Ek
first observation date used2005-08-25.0
last observation date used2024-02-11.0
computer nameMPCLINUX
JD of orbit computation2456789.287521
perihelion JD uncertainty (days)4.0368E-04
argument of perihelion uncertainty (°)4.3443E-05
ascending node uncertainty (°)1.4504E-05
inclination uncertainty (°)1.3391E-05
eccentricity uncertainty 1.8811E-07
perihelion distance uncertainty (AU)7.2203E-07
Minimum Orbit Intersection Distances (in AU)
for orbit epoch: 2460200.5, reference: E2024-CC8
Mercury2.08183
Venus1.7681
Earth1.48849
Mars1.11302
Jupiter1.61653
Saturn5.47821
Uranus14.7826
Neptune26.6415

Observations

373 total observations over interval: 2005 08 25.48563 – 2024 02 11.520753
These data are available for download (format description).

Date (UT) J2000 RA J2000 Dec Magn Location Ref
2005 08 25.48563 01 41 50.86 -16 36 25.7 19.6   644 – Palomar Mountain/NEAT MPS 459353
2005 08 25.49739 01 41 50.92 -16 36 34.4 19.6   644 – Palomar Mountain/NEAT MPS 459353
2005 08 25.50965 01 41 50.99 -16 36 43.2 19.8   644 – Palomar Mountain/NEAT MPS 459353
2010 04 26.586275 20 26 37.72 -07 58 24.9   C51 – WISE MPS 325092
2010 04 26.58628 20 26 37.74 -07 58 24.9   C51 – WISE MPS 325092
2010 04 26.586403 20 26 37.75 -07 58 24.6   C51 – WISE MPS 325092
2010 04 26.718580 20 26 45.578 -07 58 10.02   C51 – WISE MPS 904281
2010 04 26.718707 20 26 45.61 -07 58 11.3   C51 – WISE MPS 325092
2010 04 26.851012 20 26 53.53 -07 57 58.2   C51 – WISE MPS 325092
2010 04 26.983316 20 27 01.42 -07 57 44.5   C51 – WISE MPS 325092
2010 04 27.049404 20 27 05.35 -07 57 38.1   C51 – WISE MPS 325092
2010 04 27.115620 20 27 09.28 -07 57 31.3   C51 – WISE MPS 325092
2010 04 27.181708 20 27 13.20 -07 57 25.0   C51 – WISE MPS 325092
2010 04 27.247925 20 27 17.12 -07 57 18.0   C51 – WISE MPS 325092
2010 04 27.446317 20 27 28.89 -07 56 57.9   C51 – WISE MPS 325092
2010 04 27.578622 20 27 36.72 -07 56 45.2   C51 – WISE MPS 325092
2010 04 27.710926 20 27 44.51 -07 56 32.4   C51 – WISE MPS 325092
2010 04 27.843230 20 27 52.29 -07 56 19.6   C51 – WISE MPS 325092
2010 07 06.44094 20 50 18.06 -11 40 48.6 19.0 V G96 – Mt. Lemmon Survey MPS 342109
2010 07 06.44803 20 50 17.84 -11 40 52.7 18.9 V G96 – Mt. Lemmon Survey MPS 342109
2010 07 06.45525 20 50 17.62 -11 40 57.4 19.1 V G96 – Mt. Lemmon Survey MPS 342109
2010 07 06.46249 20 50 17.44 -11 41 01.6 18.9 V G96 – Mt. Lemmon Survey MPS 342109
2010 07 31.91127 20 33 53.51 -16 47 00.5 18.2 V J75 – OAM Observatory, La Sagra MPS 342109
2010 07 31.92654 20 33 52.81 -16 47 12.3 18.0 V J75 – OAM Observatory, La Sagra MPS 342109
2010 07 31.94182 20 33 52.07 -16 47 25.0 18.0 V J75 – OAM Observatory, La Sagra MPS 342109
2010 08 02.27856 20 32 51.67 -17 04 57.3 19.0   704 – Lincoln Laboratory ETS, New Mexico MPS 342109
2010 08 02.29029 20 32 51.11 -17 05 06.4 19.0   704 – Lincoln Laboratory ETS, New Mexico MPS 342109
2010 08 02.30201 20 32 50.57 -17 05 16.0 18.9   704 – Lincoln Laboratory ETS, New Mexico MPS 342109
2010 08 02.31371 20 32 50.00 -17 05 25.1 19.1   704 – Lincoln Laboratory ETS, New Mexico MPS 342109
2010 08 02.32541 20 32 49.45 -17 05 33.8 18.7   704 – Lincoln Laboratory ETS, New Mexico MPS 342109
2010 08 03.29058 20 32 06.03 -17 18 13.2 18.2   704 – Lincoln Laboratory ETS, New Mexico MPS 342109
2010 08 03.30264 20 32 05.49 -17 18 22.7 18.9   704 – Lincoln Laboratory ETS, New Mexico MPS 342109
2010 08 03.31470 20 32 04.93 -17 18 31.9 19.0   704 – Lincoln Laboratory ETS, New Mexico MPS 342109
2010 08 03.32674 20 32 04.37 -17 18 41.4 18.9   704 – Lincoln Laboratory ETS, New Mexico MPS 342109
2010 08 03.33884 20 32 03.77 -17 18 50.9 18.7   704 – Lincoln Laboratory ETS, New Mexico MPS 342109
2010 08 09.22476 20 27 43.28 -18 35 28.4 18.7   704 – Lincoln Laboratory ETS, New Mexico MPS 343882
2010 08 09.23696 20 27 42.72 -18 35 37.4 18.8   704 – Lincoln Laboratory ETS, New Mexico MPS 343882
2010 08 09.24913 20 27 42.18 -18 35 47.2 19.2   704 – Lincoln Laboratory ETS, New Mexico MPS 343882
2010 08 09.26129 20 27 41.64 -18 35 56.7 19.1   704 – Lincoln Laboratory ETS, New Mexico MPS 343882
2010 09 01.19850 20 15 21.18 -22 58 34.6 19.9   704 – Lincoln Laboratory ETS, New Mexico MPS 346414
2010 09 01.21016 20 15 20.96 -22 58 41.0 19.4   704 – Lincoln Laboratory ETS, New Mexico MPS 346414
2010 09 01.23341 20 15 20.45 -22 58 54.5 19.4   704 – Lincoln Laboratory ETS, New Mexico MPS 346414
2013 01 10.53106 08 49 39.094 +15 03 57.06 20.6 w F51 – Pan-STARRS 1, Haleakala MPS 459353
2013 01 10.54493 08 49 38.504 +15 04 02.42 20.6 w F51 – Pan-STARRS 1, Haleakala MPS 459353
2013 01 10.55879 08 49 37.923 +15 04 07.79 20.6 w F51 – Pan-STARRS 1, Haleakala MPS 459353
2013 01 10.57264 08 49 37.328 +15 04 13.23 20.7 w F51 – Pan-STARRS 1, Haleakala MPS 459353
2013 01 20.34880 08 42 26.20 +16 10 29.2 20.3 V G96 – Mt. Lemmon Survey MPS 459353
2013 01 20.35583 08 42 25.81 +16 10 32.3 20.9 V G96 – Mt. Lemmon Survey MPS 459353
2013 01 20.36287 08 42 25.52 +16 10 35.1 20.4 V G96 – Mt. Lemmon Survey MPS 459353
2013 01 20.36993 08 42 25.16 +16 10 38.5 20.8 V G96 – Mt. Lemmon Survey MPS 459353
2013 02 10.41993 08 26 05.639 +18 36 21.17 20.7 w F51 – Pan-STARRS 1, Haleakala MPS 459353
2013 02 10.43539 08 26 04.943 +18 36 27.28 20.7 w F51 – Pan-STARRS 1, Haleakala MPS 459353
2013 02 10.45091 08 26 04.246 +18 36 33.39 20.6 w F51 – Pan-STARRS 1, Haleakala MPS 459353
2013 02 10.46636 08 26 03.549 +18 36 39.43 20.7 w F51 – Pan-STARRS 1, Haleakala MPS 459353
2013 03 03.21549 08 13 51.78 +20 37 00.4 20.9 V G96 – Mt. Lemmon Survey MPS 459353
2013 03 03.21970 08 13 51.63 +20 37 01.8 20.7 V G96 – Mt. Lemmon Survey MPS 459353
2013 03 03.22384 08 13 51.56 +20 37 03.0 20.9 V G96 – Mt. Lemmon Survey MPS 459353
2013 03 03.22804 08 13 51.42 +20 37 04.1 20.8 V G96 – Mt. Lemmon Survey MPS 459353
2013 03 03.23462 08 13 51.20 +20 37 05.7 20.7 V G96 – Mt. Lemmon Survey MPS 459353
2013 03 03.24006 08 13 51.06 +20 37 07.5 20.6 V G96 – Mt. Lemmon Survey MPS 459353
2013 03 03.24557 08 13 50.91 +20 37 09.5 20.3 V G96 – Mt. Lemmon Survey MPS 459353
2014 05 05.25482 11 57 40.004 +24 43 54.38 21.0 r F51 – Pan-STARRS 1, Haleakala MPS 515241
2014 05 05.26755 11 57 39.745 +24 43 53.15 20.8 r F51 – Pan-STARRS 1, Haleakala MPS 515241
2014 05 05.28066 11 57 39.527 +24 43 51.86 20.9 r F51 – Pan-STARRS 1, Haleakala MPS 515241
2015 03 18.57523 17 12 06.344 +01 19 08.08 21.1 w F51 – Pan-STARRS 1, Haleakala MPS 592191
2015 03 18.60320 17 12 07.336 +01 19 16.71 21.1 w F51 – Pan-STARRS 1, Haleakala MPS 592191
2015 03 18.61712 17 12 07.843 +01 19 21.04 21.1 w F51 – Pan-STARRS 1, Haleakala MPS 592191
2015 03 19.60323 17 12 43.413 +01 24 22.00 21.0 w F51 – Pan-STARRS 1, Haleakala MPS 592191
2015 03 19.61697 17 12 43.889 +01 24 26.31 21.0 w F51 – Pan-STARRS 1, Haleakala MPS 592191
2015 04 20.58849 17 21 21.786 +04 22 28.01 20.8 w F51 – Pan-STARRS 1, Haleakala MPS 603131
2015 04 20.59688 17 21 21.719 +04 22 30.84 20.6 w F51 – Pan-STARRS 1, Haleakala MPS 603131
2015 04 20.60532 17 21 21.675 +04 22 33.44 20.6 w F51 – Pan-STARRS 1, Haleakala MPS 603131
2015 04 20.61371 17 21 21.617 +04 22 36.24 20.6 w F51 – Pan-STARRS 1, Haleakala MPS 603131
2015 05 19.46968 17 09 50.649 +06 18 43.78 20.0 w F51 – Pan-STARRS 1, Haleakala MPS 608546
2015 05 19.48198 17 09 50.122 +06 18 45.13 19.9 w F51 – Pan-STARRS 1, Haleakala MPS 608546
2015 05 19.49429 17 09 49.600 +06 18 46.44 20.1 w F51 – Pan-STARRS 1, Haleakala MPS 608546
2015 05 19.50673 17 09 49.071 +06 18 47.82 20.0 w F51 – Pan-STARRS 1, Haleakala MPS 608546
2015 05 20.48418 17 09 08.758 +06 20 31.70 19.9 w F51 – Pan-STARRS 1, Haleakala MPS 608546
2015 05 20.49659 17 09 08.219 +06 20 33.00 20.0 w F51 – Pan-STARRS 1, Haleakala MPS 608546
2015 05 20.50904 17 09 07.677 +06 20 34.25 20.0 w F51 – Pan-STARRS 1, Haleakala MPS 608546
2015 05 20.52143 17 09 07.142 +06 20 35.49 20.0 w F51 – Pan-STARRS 1, Haleakala MPS 608546
2015 05 22.54655 17 07 40.826 +06 23 32.41 19.5 w F52 – Pan-STARRS 2, Haleakala MPS 609806
2015 05 22.56127 17 07 40.171 +06 23 33.47 19.7 w F52 – Pan-STARRS 2, Haleakala MPS 609806
2015 05 22.59080 17 07 38.841 +06 23 35.68 19.8 w F52 – Pan-STARRS 2, Haleakala MPS 609806
2015 06 20.32007 16 44 31.773 +05 23 10.71 19.6 w F51 – Pan-STARRS 1, Haleakala MPS 614127
2015 06 20.33271 16 44 31.166 +05 23 06.54 19.6 w F51 – Pan-STARRS 1, Haleakala MPS 614127
2015 06 20.34538 16 44 30.561 +05 23 02.37 19.7 w F51 – Pan-STARRS 1, Haleakala MPS 614127
2015 06 20.35805 16 44 29.949 +05 22 58.14 19.7 w F51 – Pan-STARRS 1, Haleakala MPS 614127
2015 06 21.43255 16 43 40.502 +05 16 53.26 19.8 w F51 – Pan-STARRS 1, Haleakala MPS 614127
2015 06 21.44488 16 43 39.921 +05 16 48.95 19.9 w F51 – Pan-STARRS 1, Haleakala MPS 614127
2015 06 21.45720 16 43 39.343 +05 16 44.66 19.8 w F51 – Pan-STARRS 1, Haleakala MPS 614127
2015 06 21.46950 16 43 38.763 +05 16 40.42 19.8 w F51 – Pan-STARRS 1, Haleakala MPS 614127
2016 09 04.62191 01 51 06.17 -18 09 29.7 19.6 R Q60 – ISON-SSO Observatory, Siding Spring MPS 729873
